Powrót do katalogu

BPA-2/SL-24 R/B

AktywnyPO
NORAD 37795·ROCKET BODY·🇺🇦 Ukraine

Wystrzelony Aug 17, 2011 z Dombarovsky

Loading…

Następne Przeloty (najbliższe 24 godziny)

TLE

ŚwieżeSource: Space-Track

Epoka: Sep 14, 2026, 05:25 UTC

1 37795U 11044H   26257.22628043 -.00000003  00000-0  18232-4 0  9994
2 37795  98.2269 345.2242 0408953  47.3212 341.3779 13.72185511755048

Śledź BPA-2/SL-24 R/B w czasie rzeczywistym z AllMySat

Download on the App Store